Babinda, Australia
Current Conditions -  °F | °C
As of 9:00 PM on Saturday 25 Oct 2014 (Local Time) from YBCS Reporting Station
Few Clouds Few Clouds  
Wind Chill: 73°   Ceiling: Unl
Heat Index: 73°   Visibility: 6mi
Dew Point: 59°   Wind: 7mph
Humidity: 61%   Direction: 190°S
Pressure: 30.06"   Gusts: NA
Location:  17.35°S, 145.92°E
Report Text: YBCS 251100Z 19006KT 9999 FEW030 23/15 Q1018 NOSIG
Loading
Personal Weather Stations






























Interactive Weather Map
Tropical Storm Tracking
New forecast layout! Learn more

10-Day Weather Forecast

Advertisements
Track Severe Weather on mobile